Location: Newark
(40.7119°N, 74.0097°W)
Time: 23:03:01
(UTC+00:00)

Tiangong - Pass Details

Date: 23 June 2021
Orbit: 374 x 386 km, 41.5° (Epoch: 27 July)

Event Time Altitude Azimuth Distance (km) Brightness Sun altitude
Exits shadow 07:30:51 54° 201° (SSW) 467 1.1 -16.7°
Maximum altitude 07:31:14 60° 163° (SSE) 436 1.1 -16.7°
Drops below altitude 10° 07:34:20 10° 82° (E) 1,394 4.5 -16.3°
Sets 07:36:26 0° 79° (E) 2,251 5.7 -16.1°
